sat.trackr.live / text

‹ back to catalog

STARLINK-37158

NORAD 68343 · 2026-059Y

PAYLOAD ACTIVE UNKNOWN

§ Identity

Operator
Country
US
Launch date
2026-03-22
Launch site
AFETR
Launch vehicle
Mass (kg)
RCS (m²)

Purposes: comms

External: N2YO · Heavens-Above · Gunter

§ Orbital elements

Epoch: 2026-05-25T00:13:10.553088Z

Period
93.85 min
Inclination
53.1594°
Eccentricity
0.0001063
Mean motion
15.34407660 rev/d
Perigee alt
462.0 km
Apogee alt
463.4 km
Semi-major
6,840.8 km
B*
1.0975e-3
RAAN
349.9799°
Arg perigee
74.4171°
Mean anomaly
285.6948°
Rev number
991

§ Raw data

STARLINK-371581 68343U 26059Y   26145.00914992  .00036897  00000+0  10975-2 0  99942 68343  53.1594 349.9799 0001063  74.4171 285.6948 15.34407660  9914

JSON: /api/v1/satellites/68343 · /tle

For live sub-satellite position, see the globe view (requires WebGL).

§ Visibility from observer

Set your observer location to see the next 7 days of passes ≥ 10°. The values pass through the URL so the page stays shareable.

No JS? Fill the form by hand. The geolocation button needs JavaScript.